CW1334 Weather Reports


Display with metric or nautical units.
time (UTC)temp
F
wind
direction
speed
MPH
gust
MPH
rain 1hr
in
rain 24hr
in
rain mn
in
humidity
%
barometer
mb
20260503023103 62 47 2.0 6.0 0.00 0.00 0.00 38 1014.4
20260503021600 63 53 1.0 3.0 0.00 0.00 0.00 36 1014.4
20260503020055 64 0 0.0 2.0 0.00 0.00 0.00 35 1014.5
20260503014553 66 0 1.0 2.0 0.00 0.00 0.00 34 1014.5
20260503013105 66 0 0.0 4.0 0.00 0.00 0.00 34 1014.4
20260503011602 67 0 0.0 3.0 0.00 0.00 0.00 32 1014.5
20260503010057 67 0 0.0 2.0 0.00 0.00 0.00 33 1014.7
20260503004553 66 296 0.0 3.0 0.00 0.00 0.00 34 1014.8
20260503003108 65 258 1.0 3.0 0.00 0.00 0.00 34 1015.0
20260503001553 65 170 1.0 5.0 0.00 0.00 0.00 35 1015.1
20260503000103 65 155 2.0 5.0 0.00 0.00 0.00 35 1015.3
20260502234554 66 134 2.0 9.0 0.00 0.00 0.00 34 1015.3
20260502233054 66 140 4.0 9.0 0.00 0.00 0.00 34 1015.4
20260502231557 65 0 2.0 6.0 0.00 0.00 0.00 36 1015.6
20260502230055 65 17 3.0 11.0 0.00 0.00 0.00 35 1015.8
20260502224553 65 334 4.0 11.0 0.00 0.00 0.00 35 1015.9
20260502223058 65 248 1.0 10.0 0.00 0.00 0.00 36 1016.3
20260502221556 64 13 5.0 12.0 0.00 0.00 0.00 37 1016.4
20260502220053 64 73 4.0 9.0 0.00 0.00 0.00 37 1016.6
20260502214553 65 287 2.0 5.0 0.00 0.00 0.00 36 1017.0
20260502213054 64 245 3.0 11.0 0.00 0.00 0.00 37 1017.3
20260502211557 64 306 5.0 12.0 0.00 0.00 0.00 37 1017.4
20260502210054 65 302 4.0 11.0 0.00 0.00 0.00 37 1017.6
20260502204600 65 352 5.0 10.0 0.00 0.00 0.00 37 1017.7
20260502203056 65 0 3.0 7.0 0.00 0.00 0.00 38 1017.9
20260502201559 62 67 9.0 15.0 0.00 0.00 0.00 41 1018.0
20260502200057 61 32 3.0 10.0 0.00 0.00 0.00 42 1018.3
20260502194556 60 40 7.0 15.0 0.00 0.00 0.00 43 1018.5
20260502193054 61 44 7.0 13.0 0.00 0.00 0.00 42 1018.5
20260502191603 61 36 7.0 14.0 0.00 0.00 0.00 42 1018.6
20260502190055 60 39 8.0 12.0 0.00 0.00 0.00 43 1018.7
20260502184556 60 54 3.0 10.0 0.00 0.00 0.00 43 1018.8
20260502183055 60 28 6.0 13.0 0.00 0.00 0.00 43 1018.9
20260502181552 61 42 4.0 15.0 0.00 0.00 0.00 42 1019.0
20260502163103 61 360 5.0 16.0 0.00 0.00 0.00 42 1019.0
20260502161559 60 43 6.0 16.0 0.00 0.00 0.00 42 1019.1
20260502151558 58 338 9.0 15.0 0.00 0.00 0.00 44 1018.9
20260502150111 57 32 8.0 14.0 0.00 0.00 0.00 45 1018.7
20260502140109 54 26 5.0 10.0 0.00 0.00 0.00 49 1018.6
20260502130108 50 48 6.0 12.0 0.00 0.00 0.00 54 1018.1
20260502123101 48 344 6.0 11.0 0.00 0.00 0.00 57 1018.0
20260502121558 48 11 7.0 11.0 0.00 0.00 0.00 56 1017.8
20260502114559 48 22 6.0 12.0 0.00 0.00 0.00 56 1017.5
20260502113053 48 5 8.0 12.0 0.00 0.00 0.00 54 1017.2
20260502111554 49 347 5.0 10.0 0.00 0.00 0.00 52 1016.7
20260502110057 48 28 5.0 10.0 0.00 0.00 0.00 52 1016.4
20260502104556 48 321 3.0 9.0 0.00 0.00 0.00 50 1016.3
20260502103053 49 27 6.0 12.0 0.00 0.00 0.00 49 1015.9
20260502101554 50 44 6.0 11.0 0.00 0.00 0.00 47 1015.8
20260502080104 50 306 4.0 7.0 0.00 0.00 0.00 41 1014.7
20260502070057 48 348 3.0 8.0 0.00 0.00 0.00 43 1014.3
20260502064553 48 335 4.0 9.0 0.00 0.00 0.00 42 1014.3
20260502063114 50 321 4.0 11.0 0.00 0.00 0.00 38 1014.3
20260502061553 51 283 5.0 10.0 0.00 0.00 0.00 38 1014.3
20260502060057 51 5 3.0 9.0 0.00 0.00 0.00 37 1014.3
20260502054601 52 16 3.0 8.0 0.00 0.00 0.00 35 1014.3
20260502053102 51 5 2.0 5.0 0.00 0.00 0.00 35 1014.3
20260502051551 52 325 3.0 6.0 0.00 0.00 0.00 34 1014.3
20260502050056 52 18 1.0 5.0 0.00 0.00 0.00 33 1014.3
20260502044556 52 355 2.0 6.0 0.00 0.00 0.00 33 1014.1
20260502043113 52 344 2.0 6.0 0.00 0.00 0.00 32 1014.1
20260502041557 55 55 3.0 8.0 0.00 0.00 0.00 28 1014.1
20260502034558 60 302 6.0 11.0 0.00 0.00 0.00 24 1014.0
20260502033054 63 277 8.0 13.0 0.00 0.00 0.00 22 1013.9
20260502031555 63 280 8.0 13.0 0.00 0.00 0.00 21 1013.7
20260502030055 63 283 9.0 14.0 0.00 0.00 0.00 21 1013.5
20260502024604 65 267 7.0 11.0 0.00 0.00 0.00 20 1013.5